Location: Maccacari
(45.1333°N, 11.1333°E)
Time: 15:17:26
(UTC+00:00)

S-56A Canister/Altair - Pass Details

Date: 21 January 2021
Orbit: 631 x 2501 km, 38.9° (Epoch: 01 March)

Event Time Altitude Azimuth Distance (km) Brightness Sun altitude
Rises 04:41:05 0° 257° (WSW) 2,947 - -21.8°
Reaches altitude 10° 04:43:17 10° 250° (WSW) 2,104 - -21.5°
Exits shadow 04:45:59 32° 226° (SW) 1,252 8.3 -21.0°
Maximum altitude 04:47:46 44° 178° (S) 1,068 8.3 -20.7°
Drops below altitude 10° 04:53:41 10° 108° (ESE) 2,770 11.6 -19.6°
Sets 04:56:58 0° 102° (ESE) 4,007 12.9 -19.1°
